SCP
4 4 3 3 3 3 5 5 5 5 5 4 3 2 2 2 2 2 2 1 1 1 1 1 2 2 2 2 1 1 1 1 1 1 2 2 1 1 1 1 1 1 1
3 2 2 2 3 3 4 5 4 4 4 4 3 2 1 1 1 1 1 1 1 1 1 1 1 2 2 2 2 1 1 1 1 1 2 2 1 1 1 1 1 1 1
2 2 2 2 3 3 4 4 3 2 2 2 1 1 1 1 1 1 1 1 1 1 1 1 1 2 2 2 2 2 1 1 1 1 2 2 1 1 1 1 1 1 1
2 2 2 2 3 4 4 3 2 2 1 1 1 1 1 1 1 1 1 1 1 1 1 1 1 1 1 2 2 2 1 1 1 1 1 1 1 1 1 1 1 1 1
3 3 3 3 3 4 3 2 2 1 1 1 1 1 1 1 1 1 1 2 2 1 1 1 1 1 1 1 1 1 1 1 1 1 1 1 1 1 1 1 1 1 1
4 4 4 4 4 4 3 2 1 1 1 1 1 1 1 0 1 1 1 1 2 2 2 2 1 1 1 1 1 1 1 1 1 1 1 1 1 1 1 1 1 1 1
5 5 5 4 4 4 3 2 1 1 1 0 0 0 0 0 0 1 1 1 2 2 2 2 1 1 1 1 1 1 1 1 1 1 2 2 1 1 1 1 1 1 1
4 4 4 5 4 4 3 2 1 1 1 0 0 0 0 0 0 1 1 1 1 1 1 1 1 1 1 1 1 1 1 1 1 1 2 2 2 1 1 1 1 1 1
3 3 3 3 3 3 3 2 1 1 0 0 0 0 0 0 0 0 0 1 1 1 1 1 1 1 1 1 1 1 1 1 1 1 2 2 2 1 2 1 1 1 1
1 1 2 2 2 2 2 1 1 1 1 0 0 0 0 0 0 0 0 0 0 0 0 0 0 1 1 1 1 1 1 1 1 1 1 1 1 1 2 2 2 2 2
0 1 1 1 2 2 2 1 1 1 1 1 0 0 0 0 0 0 0 0 0 0 0 0 0 1 1 1 1 1 1 1 1 1 1 1 1 1 1 2 2 2 2
0 0 1 1 1 2 2 2 1 1 1 1 1 0 0 0 0 0 0 0 0 0 0 0 0 0 0 1 1 1 1 0 0 1 1 1 1 1 1 1 2 2 2
0 0 0 1 1 1 1 2 2 2 1 1 1 0 0 0 0 0 0 0 0 0 0 0 0 0 0 0 0 0 0 0 0 0 1 1 1 1 1 1 1 2 2
0 0 0 0 0 1 1 2 2 2 2 1 1 1 0 0 0 0 0 0 0 0 0 0 0 0 0 0 0 0 0 0 0 0 0 0 0 1 1 1 1 2 2
0 0 0 0 0 0 1 1 2 2 2 1 1 1 0 0 0 0 0 0 0 0 0 0 0 0 0 0 0 0 0 0 0 0 0 0 0 0 1 1 1 1 1
0 0 0 0 0 0 0 1 2 2 2 1 1 1 0 0 0 0 0 0 0 0 0 0 0 0 0 0 0 0 0 0 0 0 0 0 0 0 0 0 0 1 1
0 0 0 0 0 0 0 1 1 2 2 2 1 1 0 0 0 0 0 0 0 0 0 0 0 0 0 0 0 0 0 1 1 0 0 0 0 0 0 0 0 0 0
0 0 0 0 0 0 0 1 1 2 2 2 1 1 0 0 0 0 0 0 0 0 0 0 0 0 0 0 0 0 1 1 1 0 0 0 0 0 0 0 0 0 0
0 0 0 0 0 0 0 0 1 1 2 2 1 1 0 0 0 0 0 0 0 0 0 0 0 0 0 0 1 1 1 1 1 0 0 0 0 0 0 0 0 0 0
0 0 0 0 0 0 0 0 0 1 1 1 1 1 0 0 0 0 0 0 0 0 0 0 0 0 0 0 1 1 1 1 1 1 1 0 0 0 0 0 0 0 0
0 0 0 0 0 0 0 0 0 0 0 1 1 1 0 0 0 0 0 0 0 0 0 0 0 0 0 0 1 1 1 1 1 1 1 1 1 0 0 0 0 0 0
0 0 0 0 0 0 0 0 0 0 0 0 1 0 0 0 0 0 0 0 0 0 0 0 0 0 0 0 1 1 1 1 1 0 0 0 0 0 0 0 0 0 0
0 0 0 0 0 0 0 0 0 0 0 0 0 0 0 0 0 0 0 0 0 0 0 0 0 0 0 0 0 0 0 1 0 0 0 0 0 0 0 0 0 0 0
0 0 0 0 0 0 0 0 0 0 0 0 0 0 0 0 0 0 0 0 0 0 0 0 0 0 0 0 0 0 0 0 0 0 0 0 0 0 0 0 0 0 0
0 0 0 0 0 0 0 0 0 0 0 0 0 0 0 0 0 0 0 0 0 0 0 0 0 0 0 0 0 0 0 0 0 0 0 0 0 0 0 0 0 0 0
0 0 0 0 0 0 0 0 0 0 0 0 0 0 0 0 0 0 0 0 0 0 0 0 0 0 0 0 0 0 0 0 0 0 0 0 0 0 0 0 0 0 0
Wind_Speed
2 1 1 1 1 1 1 1 2 2 2 3 3 3 3 4 4 4 3 7 7 7 8 9 9 9 9 9 9 9 10 11 11 11 11 11 10 10 10 11 12 13 14
2 1 1 1 1 2 2 2 2 2 2 2 3 3 3 3 4 4 4 4 7 8 9 9 10 10 10 10 9 10 10 11 11 11 11 11 11 11 11 12 12 13 14
3 2 2 2 2 1 1 1 1 1 2 2 3 3 3 4 4 4 4 3 4 7 9 9 10 10 10 11 11 11 10 11 12 11 12 12 12 12 11 12 12 13 13
3 3 2 2 2 1 1 1 1 1 1 2 2 3 2 3 4 4 4 4 3 4 6 9 9 9 10 10 11 10 10 11 11 11 11 12 12 13 13 13 12 13 13
3 3 3 2 2 1 1 1 1 1 2 2 2 3 2 3 4 4 4 4 4 4 4 6 9 9 9 9 10 11 11 11 12 12 12 12 12 13 13 13 13 13 14
3 3 2 3 2 1 1 1 1 1 1 2 3 3 3 3 3 3 4 3 3 4 4 4 4 5 8 9 10 11 12 12 12 12 12 12 12 12 13 13 14 14 14
2 2 3 2 2 2 2 2 1 1 1 1 1 2 3 3 2 3 3 2 3 3 3 3 3 3 4 8 9 11 12 12 13 13 13 13 12 12 12 13 14 15 15
2 2 3 3 3 2 2 2 2 1 1 1 1 0 2 3 2 2 2 2 2 2 3 3 3 3 3 3 5 9 10 11 13 13 13 12 12 12 13 14 14 15 15
2 2 2 3 3 3 3 3 3 3 2 1 2 2 1 2 2 2 2 2 2 2 2 3 3 3 4 3 4 6 9 9 11 12 12 12 12 13 13 14 15 15 16
2 2 2 2 2 3 3 3 3 3 3 2 1 2 2 2 2 2 2 2 2 3 3 3 3 4 4 3 5 7 8 8 10 11 12 12 12 12 12 13 14 15 16
2 2 2 2 2 2 3 3 3 3 3 3 2 2 2 2 3 3 3 3 3 3 3 3 3 3 4 4 4 6 8 8 8 10 11 11 12 12 13 13 13 14 15
2 2 2 2 2 2 3 3 3 3 3 3 3 2 2 2 2 3 3 3 4 4 3 3 3 3 3 4 5 8 8 8 8 8 10 10 11 12 12 13 13 14 14
2 3 3 2 2 3 3 3 3 3 4 4 3 3 3 3 2 3 3 3 3 3 3 3 3 3 4 3 4 8 8 8 8 7 8 9 10 11 12 12 13 14 14
3 3 3 3 3 3 3 2 2 3 2 3 3 3 3 3 3 3 3 3 3 3 3 5 3 4 4 3 5 8 6 8 8 7 7 8 9 10 11 11 12 12 12
3 3 3 3 3 3 2 2 2 3 2 3 3 3 3 3 3 3 3 3 3 4 4 4 3 4 3 3 6 5 5 8 8 8 8 8 8 9 10 10 11 11 10
3 3 3 3 3 3 2 2 2 2 2 2 2 3 3 3 3 3 3 3 4 4 4 3 4 4 4 4 5 5 6 8 9 9 8 8 8 8 8 9 10 10 10
3 3 3 3 3 3 2 2 2 2 2 2 2 3 3 3 3 3 3 3 3 4 5 5 3 4 5 5 5 4 4 5 5 8 9 8 8 7 8 7 8 8 8
3 3 3 3 3 3 2 2 2 2 2 3 3 3 4 3 4 3 3 3 4 4 4 5 4 3 5 5 5 5 4 4 4 7 9 9 8 8 7 7 7 7 8
3 3 3 3 3 3 2 3 2 3 3 3 4 4 4 3 4 3 3 4 3 3 4 4 5 3 4 3 4 4 4 4 4 5 6 7 8 8 7 7 7 7 7
3 3 3 3 3 2 3 3 2 3 3 3 4 4 4 4 5 5 4 5 4 4 3 4 4 4 4 3 2 3 4 3 4 4 4 5 5 6 7 7 7 7 8
3 2 2 3 3 2 3 3 3 3 3 4 4 4 5 5 5 5 4 4 4 3 3 3 4 3 3 2 3 2 3 4 4 3 3 3 3 3 4 5 6 7 7
3 2 2 3 4 3 4 4 3 3 3 4 4 5 5 5 6 6 6 5 4 4 4 3 3 4 5 4 3 3 3 2 3 2 2 4 2 3 3 3 5 6 7
3 3 3 3 4 4 5 5 5 2 3 3 4 4 4 4 4 4 4 5 4 4 5 4 4 5 4 3 3 3 3 3 4 3 2 3 2 3 3 3 5 6 7
3 3 4 4 4 5 6 5 4 2 2 3 4 4 4 4 4 3 3 3 4 4 4 4 5 6 5 4 3 3 4 4 4 3 2 3 3 3 3 3 4 5 6
3 3 3 4 3 5 6 6 4 2 2 3 4 3 3 4 5 4 2 3 4 4 4 4 5 5 5 5 3 2 2 2 3 3 2 3 3 3 3 3 3 4 5
3 3 4 3 3 4 6 6 3 1 2 3 3 3 4 4 4 3 2 3 4 4 4 4 3 3 3 3 3 3 3 3 3 3 2 2 2 2 3 2 3 3 3
Wind_Direction
209 228 242 244 248 247 245 255 265 271 267 266 263 259 256 251 251 250 255 257 256 256 254 251 246 245 243 241 238 236 233 231 227 224 224 227 229 228 226 225 220 216 216
200 209 235 237 241 241 236 227 244 254 261 259 269 269 263 262 257 258 254 263 262 256 254 254 252 251 250 247 243 240 236 234 232 228 226 227 229 231 231 227 223 219 216
201 202 218 234 240 242 240 225 247 267 275 278 276 273 262 260 260 261 256 251 258 259 259 260 261 259 255 251 246 243 238 235 234 232 230 230 231 232 232 230 226 223 219
204 201 217 237 241 229 228 218 222 254 275 282 285 279 266 264 265 262 258 251 248 257 265 265 259 256 255 253 250 249 244 238 237 236 235 234 234 234 234 231 229 227 223
214 204 221 237 229 213 230 242 206 223 256 267 270 266 268 268 266 264 261 254 248 250 253 266 262 259 257 255 254 253 249 245 242 240 239 238 237 236 235 232 230 229 226
218 209 226 232 212 210 232 239 238 230 244 268 281 281 273 265 256 255 259 259 254 254 253 255 260 262 259 261 259 256 255 252 249 246 244 243 241 239 237 236 233 229 228
232 220 230 227 212 213 226 225 217 244 258 256 297 310 300 279 279 264 255 256 260 261 256 251 250 252 264 267 266 261 258 257 254 251 247 244 242 242 242 241 239 232 229
245 237 229 229 214 211 233 226 203 207 235 191 175 316 323 325 317 290 286 269 274 273 272 271 261 255 257 259 266 269 266 264 261 257 253 248 246 244 244 244 243 237 230
268 254 244 238 226 211 228 232 209 199 218 227 188 180 196 255 304 306 294 295 293 287 290 288 274 265 257 253 259 269 274 271 265 261 258 252 249 246 244 246 246 241 233
273 260 252 241 237 225 227 235 218 202 196 223 220 215 218 206 239 296 299 292 287 275 277 276 278 274 265 257 256 260 265 267 265 262 261 258 254 250 246 247 248 242 236
296 286 266 249 242 235 234 232 221 210 202 209 212 206 218 229 229 238 278 297 298 275 266 266 265 267 266 261 261 261 266 263 262 262 259 258 257 255 250 247 248 247 239
296 298 290 272 255 245 240 231 222 218 218 214 215 209 207 209 216 221 249 274 286 289 285 270 259 260 262 262 264 272 270 265 262 263 260 258 257 256 252 250 250 249 245
286 288 289 283 275 264 252 230 223 227 219 214 219 224 224 230 220 219 237 260 273 286 290 277 257 257 260 259 263 275 274 270 266 266 262 258 255 253 252 251 251 251 249
271 277 281 276 271 278 278 238 227 239 227 221 230 228 229 235 223 221 223 238 274 280 273 271 276 255 261 260 259 269 273 269 267 264 259 258 255 252 251 251 250 249 247
276 279 281 286 285 281 274 246 229 240 233 232 234 233 235 240 232 232 229 224 231 267 274 267 271 272 272 266 263 268 267 267 265 260 257 254 253 251 251 250 248 241 236
279 284 291 290 292 288 282 261 253 248 238 247 237 236 244 245 240 234 228 226 222 233 259 261 258 271 280 277 271 268 266 269 266 262 257 252 252 250 249 247 244 236 231
285 285 283 282 288 288 287 265 263 256 248 262 261 250 257 252 246 243 233 229 226 223 250 270 263 273 275 280 287 278 270 266 266 258 256 251 250 250 250 247 240 236 231
289 285 287 289 292 292 293 273 274 274 260 264 268 262 264 258 254 252 244 243 238 228 237 266 275 275 269 277 284 285 284 277 271 264 255 251 249 249 250 249 245 239 233
305 298 296 292 291 290 297 285 274 274 266 261 261 260 266 263 261 256 253 253 252 245 232 250 271 269 269 277 291 290 290 285 286 274 257 250 248 248 247 243 241 236 231
306 307 308 299 286 284 293 282 275 272 274 269 263 262 265 256 255 255 253 251 251 255 247 252 265 272 271 277 277 287 298 296 295 292 277 263 250 247 243 238 235 231 225
315 314 323 326 312 295 289 283 277 271 273 281 284 280 272 268 262 254 254 252 250 255 260 262 269 273 275 279 276 274 280 292 286 272 279 273 261 261 249 235 231 230 225
326 334 331 322 314 301 302 296 284 277 279 280 287 289 283 283 281 271 267 260 245 242 249 251 257 263 269 267 270 267 268 286 290 276 273 281 265 270 266 248 234 227 226
333 333 325 323 313 306 308 302 295 282 281 284 285 290 294 296 292 286 287 283 273 255 233 229 247 256 261 260 265 272 264 263 269 284 275 280 278 277 276 262 240 232 229
324 319 315 313 310 315 318 309 306 293 286 290 285 279 285 293 301 294 288 294 290 281 260 240 246 256 259 263 249 255 267 273 274 270 245 265 276 275 282 272 252 236 232
319 316 314 313 315 319 325 324 330 312 307 310 307 304 295 293 307 310 288 291 299 299 287 270 260 267 270 266 252 249 268 268 284 281 234 250 270 278 275 268 265 248 242
304 315 320 319 316 315 326 331 340 312 312 316 321 319 310 308 309 313 270 273 290 298 312 321 317 314 302 290 264 231 241 261 276 280 245 238 260 265 277 265 271 270 253